508P/McNaught (2025)

Japanese version
Home page
Updated on August 27, 2025

---------------------------------------------------------------------

* Profile

Designation 508P/2025 O1
Recovery Date July 29, 2025
Magnitude 18.4 mag
Recoverer A. Maury and F. Signoret (San Pedro de Atacama, Chile)

* Orbital Elements

Epoch 2025 May 5.0 TT = JDT 2460800.5                                           
T 2025 July 11.25681 TT                                 Pike                    
q   1.5393148            (2000.0)            P               Q                  
n   0.14583131     Peri.  338.88243     -0.32540100     +0.78586800             
a   3.5746665      Node   268.83032     -0.77457204     -0.54051056             
e   0.5693823      Incl.   31.73334     -0.54235813     +0.30043272             
P   6.76                                                                        
From 114 observations 2005 May 3-2025 Aug. 7, mean residual 1".0.               

* Magnitudes Graph

        m1 = 15.7 + 5 log d + 15.0 log r

---------------------------------------------------------------------

The orbital elements are published on M.P.E.C. 2025-P120.
The magnitudes graphs are made with Comet for Windows.

---------------------------------------------------------------------

Copyright(C) Seiichi Yoshida (comet@aerith.net). All rights reserved.